Wetbulb
45.31 45.38 45.28 45.56 45.59 45.87 46.53 47.34 47.48 47.79 48.21 48.13 48.32 48.88 49.02 49.20 49.33 52.97 56.16 61.50 58.80 55.21 53.83 55.10 54.60 52.14 53.09 53.90 50.17 51.71 50.15 50.73 50.29 44.91 41.76 46.08 44.66 45.34 43.93 45.28 42.40 41.16 40.79 36.93 40.74 33.91 33.27 47.14 46.31 42.09 47.56 49.29 49.12 49.51
45.09 45.02 44.90 45.14 45.73 46.59 47.01 47.38 47.50 47.75 48.03 48.40 48.30 48.44 48.64 48.77 49.31 52.05 54.58 60.39 62.06 57.87 54.59 57.91 56.64 57.11 57.08 57.47 55.16 53.30 52.20 52.03 52.77 49.68 48.95 49.51 41.53 41.17 45.13 40.43 46.93 41.76 46.02 44.57 43.65 43.27 48.01 49.01 48.27 50.99 50.35 49.20 49.63 49.80
44.90 45.28 45.92 46.36 46.58 46.61 46.27 46.05 48.10 48.40 48.42 48.31 48.35 48.52 48.50 48.77 50.08 53.00 58.55 60.81 60.77 56.03 53.78 54.73 53.89 56.05 57.91 57.84 59.48 52.99 55.52 55.97 54.34 56.29 52.25 50.84 40.49 48.61 39.51 44.48 45.90 47.04 47.65 44.66 43.61 45.99 47.09 48.06 49.44 50.15 50.40 49.71 50.31 50.57
45.73 45.85 45.89 46.24 46.17 46.91 47.70 47.70 47.86 47.65 47.72 47.76 47.68 47.93 48.29 49.47 50.90 53.59 58.70 60.15 58.39 54.06 47.92 50.17 56.58 53.72 56.46 57.75 57.87 57.99 57.35 56.31 55.57 55.49 49.88 43.75 42.98 49.34 47.28 47.33 46.03 47.69 47.06 44.85 44.78 46.86 47.31 48.31 49.33 49.68 50.16 50.01 49.24 49.37
45.97 45.79 45.88 46.42 47.15 47.04 47.09 47.00 47.00 46.97 47.02 47.43 47.59 48.00 48.50 49.87 51.49 56.55 57.59 56.69 58.88 56.19 46.81 49.04 53.58 53.97 56.08 56.60 56.08 56.23 55.71 54.54 53.06 49.48 42.85 47.40 48.90 47.94 48.06 47.38 45.50 48.07 45.79 44.20 43.21 46.95 47.04 47.51 48.43 49.02 48.70 48.62 48.54 47.57
46.68 46.70 46.64 46.66 46.88 46.88 46.86 46.99 46.97 47.20 47.52 47.72 47.77 48.19 49.72 50.67 52.61 55.77 53.14 56.67 57.60 59.34 51.50 44.83 51.64 51.28 54.15 55.37 54.81 54.63 55.40 55.06 54.52 48.19 47.30 48.98 47.48 49.70 41.19 43.62 46.83 46.88 47.47 48.20 46.89 48.17 48.57 48.12 48.41 49.27 47.77 46.47 45.93 44.35
46.70 46.86 46.86 46.89 47.11 47.53 47.73 47.56 47.51 47.65 47.96 47.89 48.32 48.96 50.13 51.29 57.45 54.00 50.72 53.12 53.41 57.53 47.81 41.22 45.16 51.02 52.08 53.73 52.54 53.21 53.50 51.75 52.96 48.19 44.67 48.11 47.87 49.31 40.66 42.39 45.65 46.04 47.16 47.42 48.31 48.41 45.85 46.85 44.18 45.49 43.59 42.81 42.37 41.76
47.04 47.22 47.38 47.27 47.42 47.89 47.67 47.83 48.12 48.43 48.68 48.79 48.87 49.38 49.42 48.90 49.07 51.67 50.41 48.42 50.32 51.97 49.42 38.32 42.32 46.21 51.13 48.72 46.27 51.15 48.99 51.18 46.80 44.20 45.53 44.33 45.67 44.91 42.94 44.73 45.22 46.09 46.36 45.75 45.91 46.98 45.55 44.08 43.32 42.23 41.98 40.60 38.49 36.93
46.97 46.86 47.09 47.15 47.38 47.81 48.13 48.86 48.90 48.96 48.61 48.71 48.98 49.73 55.08 54.88 54.06 50.93 46.56 47.98 54.08 51.77 39.04 36.69 39.59 38.14 48.18 44.28 45.84 46.35 47.36 38.86 46.30 40.86 43.26 45.05 40.19 38.88 39.54 40.69 42.29 43.40 43.69 43.25 44.43 43.77 42.72 40.53 39.45 39.59 39.70 37.88 36.72 37.05
46.53 46.64 46.83 47.15 46.99 46.63 47.08 47.24 48.27 48.29 48.17 48.62 54.09 52.93 50.11 51.23 46.96 48.37 49.37 50.21 47.90 47.39 43.81 38.32 44.18 40.74 45.41 43.64 40.57 42.87 41.44 38.48 35.60 40.15 44.80 41.57 39.75 38.56 39.74 40.34 42.56 44.29 44.89 44.21 40.51 37.61 38.20 37.20 38.50 38.46 38.37 39.83 39.73 38.85
46.91 46.53 47.11 46.49 46.03 46.03 46.84 47.34 47.25 47.79 47.65 54.98 50.53 45.79 50.78 46.94 51.08 47.16 39.55 42.67 45.22 38.68 42.30 41.84 44.67 40.98 44.74 40.53 36.62 40.49 36.32 38.08 33.79 38.84 38.75 37.66 36.57 36.43 39.61 40.78 42.63 43.77 43.06 40.84 40.87 40.15 39.95 38.84 38.14 38.29 36.94 36.05 35.86 35.72
46.25 45.94 45.96 46.00 45.53 45.34 45.73 46.40 48.72 50.30 49.49 50.64 50.92 50.82 50.91 47.81 44.08 39.59 35.24 38.50 39.59 37.28 39.17 38.64 40.10 41.61 40.76 44.71 39.43 37.99 34.51 37.14 33.27 41.04 38.28 33.71 34.71 38.54 39.54 39.80 40.81 41.03 40.77 39.92 39.69 39.48 39.70 38.44 37.44 36.31 35.77 35.20 34.67 35.37
44.60 44.51 44.73 44.89 45.27 45.37 45.25 45.11 44.97 45.64 47.62 53.10 48.29 41.04 45.21 37.77 35.96 34.87 33.05 35.80 34.32 37.92 37.80 38.62 35.80 40.08 40.19 42.57 37.20 37.96 33.79 34.35 40.29 34.85 33.59 34.94 37.41 38.63 39.20 39.07 39.28 40.26 40.45 40.07 38.25 37.54 36.56 35.25 35.72 35.26 33.88 34.52 36.55 34.64
43.74 43.76 43.89 43.96 44.38 44.58 44.50 44.70 45.61 48.41 49.50 39.77 37.23 35.24 35.60 33.79 35.05 35.78 37.65 36.98 35.60 36.69 38.50 39.67 36.69 38.40 39.75 36.50 38.32 32.88 35.16 36.81 32.10 30.99 32.00 35.03 36.49 37.68 38.72 39.43 38.96 36.62 35.93 35.77 35.53 35.32 34.29 33.87 33.29 33.23 32.67 32.45 30.90 29.73
42.97 43.00 43.15 42.91 43.73 44.24 44.43 44.47 44.40 47.49 42.98 37.05 36.87 32.88 32.52 32.88 33.79 33.79 34.87 35.96 35.72 39.47 40.39 38.80 39.01 40.25 36.69 34.51 36.84 33.42 31.79 31.41 32.71 33.53 34.60 35.28 35.89 36.27 36.78 37.14 35.52 34.28 34.31 34.75 34.94 32.98 33.06 34.67 33.37 32.20 31.00 30.00 29.29 28.31
43.02 42.89 40.64 42.58 42.95 43.55 44.26 44.19 44.07 43.13 37.56 35.04 34.33 32.52 33.06 33.06 32.15 32.88 33.24 33.24 37.14 39.85 42.90 42.07 37.00 35.96 33.42 35.86 34.69 33.92 32.63 31.47 32.59 34.85 35.23 35.56 36.16 36.99 37.05 36.58 36.54 36.66 36.23 35.96 35.49 34.08 31.83 30.05 30.24 29.86 29.57 27.91 27.78 27.41
42.48 39.00 40.84 42.04 42.15 42.00 42.61 40.95 39.10 33.79 33.24 33.24 31.79 33.06 33.97 32.70 31.79 32.15 33.60 33.97 36.85 38.14 34.15 37.57 34.33 32.20 35.48 32.31 31.13 34.43 32.46 33.57 34.24 34.06 34.93 36.64 36.71 36.70 36.89 35.94 34.36 35.69 36.31 35.14 33.93 32.86 31.21 30.21 29.02 27.78 26.58 27.07 26.75 26.90
42.73 42.65 40.95 41.82 42.77 41.44 38.64 37.60 34.87 36.15 32.20 33.26 31.80 31.97 31.92 32.67 32.52 31.97 32.70 33.51 35.58 35.40 36.46 34.50 37.50 32.85 33.42 31.29 30.59 32.81 33.15 32.44 32.67 32.94 35.30 36.87 37.74 37.40 36.82 36.24 36.55 35.77 33.71 32.07 30.87 30.20 29.17 28.10 27.69 27.26 26.11 25.44 25.84 25.62
40.36 40.99 40.02 40.81 43.04 40.26 34.11 34.67 37.28 32.19 33.02 34.45 34.81 35.16 34.28 33.06 33.76 35.20 35.20 36.97 37.27 39.18 38.37 37.31 33.98 32.72 32.51 34.58 33.62 33.15 32.22 33.47 32.12 32.44 33.45 34.19 35.79 35.49 35.04 34.07 33.05 32.03 30.90 30.32 30.45 29.69 28.26 26.23 25.40 25.35 24.74 23.88 22.94 23.59
39.75 40.11 40.03 40.48 43.09 38.91 33.69 34.14 39.65 34.65 31.78 33.45 35.71 34.51 34.39 33.68 34.65 34.33 35.60 37.61 38.08 38.27 33.62 32.27 29.84 29.27 31.30 32.06 35.70 36.28 34.88 35.73 34.05 31.96 31.42 32.71 33.59 33.02 32.47 32.28 31.08 30.29 28.86 27.47 25.54 25.60 26.90 26.50 24.99 23.47 22.44 21.50 21.38 20.75
41.55 40.42 40.86 42.92 40.60 38.15 35.29 34.26 33.18 34.06 34.03 32.45 34.59 34.56 33.60 35.89 34.92 34.51 34.97 37.57 32.96 29.36 27.58 28.51 28.47 29.87 32.17 34.17 36.27 37.30 36.48 37.37 36.20 35.67 33.49 30.35 32.25 31.92 30.22 29.71 29.22 28.76 27.57 26.53 25.63 23.37 22.77 22.43 21.90 21.47 21.54 21.51 20.52 21.62
40.36 39.75 39.97 40.61 36.85 35.65 34.69 36.37 34.31 35.87 33.68 33.05 33.78 34.38 32.69 31.94 32.06 32.35 35.05 31.37 27.99 27.90 29.55 30.31 30.61 31.60 32.10 32.57 33.31 34.44 33.85 33.12 32.59 30.76 29.91 29.98 28.14 28.07 27.58 27.86 26.97 24.83 23.97 23.36 22.92 21.89 21.87 20.46 19.17 19.15 19.93 19.54 19.93 20.89
39.20 39.95 37.48 37.34 33.36 33.36 30.00 37.26 32.56 32.70 30.02 30.83 33.12 30.12 30.22 30.60 31.13 34.88 28.78 29.36 28.64 30.54 30.54 30.13 30.99 31.94 30.70 31.07 31.48 32.23 33.36 32.39 30.22 29.09 28.40 28.40 27.81 26.94 25.20 24.29 24.64 23.53 22.24 20.61 21.35 20.83 19.63 15.35 18.37 16.99 18.94 18.77 19.12 18.96
37.35 32.66 29.94 29.86 31.47 27.62 33.42 30.33 32.67 31.07 31.81 29.87 28.41 25.63 26.94 28.78 32.36 29.38 25.91 27.02 28.41 30.05 28.49 27.99 28.35 27.66 28.76 28.91 27.53 27.34 28.55 29.77 28.35 27.97 28.37 27.02 24.64 23.36 23.00 21.43 20.79 19.87 19.49 19.78 19.73 19.23 18.89 17.65 15.27 17.56 16.97 16.24 16.79 15.46
29.55 26.76 30.33 26.62 31.04 28.64 26.97 27.31 27.76 28.09 25.83 28.04 26.53 25.68 26.71 30.02 25.65 25.08 24.32 24.57 26.18 27.25 29.71 30.70 29.14 29.02 26.28 24.94 24.68 24.06 26.22 27.22 25.05 22.42 23.58 24.23 22.38 21.65 20.68 20.27 18.69 17.66 18.44 18.27 17.64 16.48 16.32 15.71 15.68 15.15 14.00 14.47 13.31 12.69
23.73 26.22 26.40 26.84 27.27 27.11 27.26 24.79 25.28 25.30 26.44 25.72 25.05 27.29 29.00 27.27 22.74 20.34 20.34 22.71 23.49 23.10 24.14 26.26 27.44 25.42 23.29 24.52 22.91 21.32 21.50 24.62 24.18 20.41 19.82 20.93 21.22 21.10 19.48 18.58 18.55 17.52 17.48 16.84 15.30 14.06 13.95 13.78 12.91 11.80 12.44 13.28 12.54 12.37
23.70 25.01 27.93 30.41 29.04 28.98 27.65 27.84 28.78 27.18 25.04 24.79 26.43 25.67 26.35 20.76 18.72 19.08 23.08 22.08 22.09 21.86 22.25 23.26 23.74 22.61 20.44 19.58 20.03 20.49 20.62 20.56 20.62 19.04 19.01 18.55 17.94 17.75 17.42 15.80 13.41 14.20 15.01 14.44 13.15 12.91 11.57 11.13 11.39 11.45 11.51 13.07 13.34 12.32
26.24 27.38 24.21 26.26 27.07 28.48 25.14 26.00 25.63 24.91 25.63 27.17 27.94 21.94 20.40 18.85 16.69 19.32 19.98 21.87 21.80 21.09 19.76 18.98 18.33 18.32 18.42 19.27 20.22 19.44 18.65 18.55 17.92 18.42 18.19 18.05 17.65 17.07 15.44 16.20 13.96 9.30 12.38 12.43 11.24 10.60 10.90 10.46 10.47 11.18 11.50 10.78 10.08 11.36
25.37 27.46 28.08 23.21 25.77 25.73 24.98 25.72 25.57 24.93 25.43 27.09 25.14 20.56 17.12 16.70 17.27 18.42 20.16 21.59 23.54 22.33 19.43 18.02 18.10 19.16 18.06 17.61 17.44 17.85 18.28 18.30 17.04 13.47 13.30 14.92 15.70 16.05 15.86 14.79 14.56 14.22 13.66 12.84 11.26 10.89 10.47 9.04 9.74 9.64 9.02 8.72 9.60 9.88
24.98 28.53 26.57 24.68 22.89 22.90 25.43 27.85 24.07 23.67 24.32 24.06 22.02 18.55 16.61 15.74 16.74 19.98 19.86 19.56 18.30 16.87 16.94 17.07 17.60 17.97 16.82 16.96 15.26 14.39 15.24 14.46 12.96 12.34 11.90 11.16 11.58 13.37 13.45 13.43 12.96 13.09 12.61 11.85 10.53 10.57 10.36 10.04 9.77 10.39 9.33 8.97 8.80 7.86
27.39 28.36 25.68 25.35 23.76 25.03 26.32 27.75 26.54 25.23 23.12 20.75 21.93 19.08 15.48 14.98 16.77 17.04 16.44 17.81 17.41 17.87 17.46 15.92 15.03 16.27 14.99 13.73 14.60 14.22 13.32 13.84 10.58 10.77 9.75 10.83 11.88 12.56 13.22 12.33 12.53 12.26 10.93 10.25 9.39 8.70 8.17 6.82 7.32 7.26 7.35 6.46 5.40 4.48
26.21 23.32 23.84 22.00 23.06 25.22 27.83 27.13 26.52 24.09 22.67 20.96 17.65 18.75 17.81 17.26 12.50 13.68 14.60 17.55 16.36 15.06 11.92 15.54 14.73 12.47 13.16 14.27 13.64 13.67 6.38 11.69 12.17 10.26 9.66 10.16 10.86 12.06 11.99 11.89 11.69 11.42 10.07 8.70 8.03 8.00 7.57 6.24 5.54 5.62 5.27 4.79 4.41 2.35
24.12 24.67 24.45 23.90 23.21 22.44 22.81 23.29 21.86 18.95 19.32 17.10 15.29 16.06 14.97 14.36 8.91 12.77 15.73 15.68 14.06 13.32 13.05 13.82 14.54 14.30 11.57 10.96 11.43 12.53 10.72 12.85 10.33 8.98 8.51 6.87 5.08 6.44 7.65 10.04 10.44 10.08 8.61 7.88 7.69 7.32 6.54 5.62 4.73 4.33 3.49 2.60 1.96 1.07
MSLP
990.89 991.95 993.07 994.48 995.28 995.87 996.75 997.36 998.01 999.16 1000.02 1001.10 1002.12 1002.98 1003.95 1004.82 1005.65 1006.33 1005.24 1004.70 1004.25 1002.41 1003.50 1003.65 1003.38 1003.27 1003.29 1003.67 1004.82 1006.40 1007.46 1008.00 1008.20 1008.66 1009.34 1009.52 1009.56 1009.37 1009.16 1008.82 1009.81 1010.35 1011.11 1011.63 1011.74 1011.51 1010.22 1009.38 1009.67 1009.57 1009.79 1009.66 1009.97 1009.94
991.38 992.52 993.48 994.18 994.69 995.30 995.98 996.81 997.63 998.72 999.08 1000.01 1001.42 1002.35 1003.40 1004.23 1005.02 1005.91 1005.44 1004.50 1003.70 1003.01 1004.45 1004.81 1005.17 1004.86 1004.84 1004.24 1004.05 1005.93 1005.40 1006.22 1006.83 1007.45 1009.02 1009.68 1010.10 1010.33 1009.99 1009.23 1009.31 1009.44 1009.50 1009.91 1010.30 1009.66 1009.66 1009.58 1009.53 1010.13 1010.43 1010.54 1010.70 1011.05
991.48 992.23 992.90 993.61 994.23 995.08 995.61 996.84 997.61 998.37 999.20 1000.10 1001.00 1001.91 1002.88 1003.86 1004.90 1005.31 1004.82 1003.82 1002.88 1003.64 1005.04 1005.17 1005.41 1005.95 1006.02 1005.85 1005.56 1005.33 1005.91 1005.56 1006.48 1007.31 1008.55 1009.69 1010.16 1009.89 1009.94 1009.29 1008.78 1009.22 1009.87 1009.98 1010.04 1009.04 1009.37 1009.83 1010.19 1010.48 1010.84 1011.19 1011.45 1011.83
991.80 992.18 992.80 993.25 993.97 994.97 995.20 995.91 997.05 998.04 998.98 999.85 1001.19 1002.19 1002.90 1003.77 1004.68 1004.92 1004.63 1004.09 1003.39 1004.10 1004.98 1006.16 1006.16 1006.52 1006.80 1006.15 1005.88 1005.89 1005.64 1006.49 1007.03 1007.68 1009.01 1009.99 1010.26 1009.93 1009.76 1009.26 1009.20 1009.42 1009.95 1009.69 1009.69 1009.56 1009.75 1010.55 1011.51 1011.99 1012.05 1012.44 1012.65 1012.92
992.00 992.60 993.19 993.87 994.34 994.60 995.31 996.35 997.27 997.93 998.88 1000.02 1001.16 1001.96 1002.77 1003.66 1004.50 1005.07 1005.24 1004.62 1003.76 1003.55 1005.10 1006.36 1006.80 1007.27 1006.63 1006.11 1006.04 1006.24 1006.44 1006.62 1007.34 1008.63 1009.55 1010.09 1010.23 1010.57 1010.79 1010.44 1009.89 1009.85 1009.71 1010.24 1010.34 1011.01 1011.16 1011.95 1012.80 1013.07 1012.96 1013.21 1013.59 1013.89
991.93 992.48 993.18 993.84 994.33 994.83 995.55 996.32 997.22 998.20 999.07 999.91 1000.91 1001.91 1002.57 1003.32 1003.95 1004.65 1004.81 1004.24 1004.32 1003.63 1005.21 1007.09 1007.80 1007.58 1007.15 1006.57 1006.62 1006.70 1006.83 1007.26 1007.89 1009.13 1010.33 1010.55 1011.14 1011.01 1011.26 1010.80 1010.69 1010.87 1011.24 1011.45 1011.33 1012.24 1012.62 1013.34 1013.72 1013.83 1014.22 1014.74 1015.23 1015.80
992.79 993.22 993.69 994.15 994.53 994.97 995.45 996.05 996.77 997.64 998.58 999.42 1000.25 1001.31 1002.52 1003.32 1004.24 1005.18 1005.55 1005.10 1004.59 1004.07 1005.68 1007.92 1007.93 1008.14 1008.06 1007.53 1008.18 1008.14 1008.41 1008.86 1008.91 1010.39 1011.37 1011.49 1011.74 1011.71 1012.18 1011.56 1011.76 1012.22 1012.40 1012.70 1012.97 1013.09 1013.63 1013.98 1014.84 1015.46 1016.15 1016.86 1017.43 1017.94
993.43 993.66 994.04 994.58 995.11 995.53 995.89 996.36 997.10 997.94 999.00 1000.06 1001.02 1002.12 1003.04 1003.91 1005.62 1005.60 1005.41 1005.28 1005.13 1004.98 1006.91 1008.14 1008.53 1008.56 1008.61 1008.47 1009.05 1009.34 1009.52 1009.81 1010.98 1011.76 1012.39 1012.48 1012.85 1013.01 1012.74 1012.64 1012.87 1013.15 1013.46 1013.73 1013.95 1014.09 1014.52 1015.62 1016.49 1017.27 1018.04 1018.65 1019.06 1019.53
995.27 995.51 995.49 995.84 996.30 996.53 996.75 997.21 997.89 998.72 999.68 1000.49 1001.20 1002.06 1003.41 1004.40 1004.65 1005.48 1006.00 1005.56 1004.77 1005.70 1007.53 1008.30 1008.63 1009.45 1009.52 1009.97 1010.32 1010.69 1010.75 1011.67 1012.40 1012.50 1012.79 1012.88 1013.67 1013.80 1014.14 1014.11 1014.01 1014.22 1014.37 1014.61 1014.98 1015.50 1016.19 1016.93 1017.78 1018.50 1019.08 1019.63 1019.80 1020.06
996.65 996.44 996.66 997.02 997.30 997.69 998.13 998.40 998.87 999.45 1000.05 1000.72 1001.35 1002.02 1004.00 1005.38 1005.89 1006.15 1006.37 1006.04 1006.57 1007.44 1008.44 1009.20 1009.40 1010.05 1010.23 1010.62 1011.40 1011.73 1012.26 1012.70 1013.01 1013.52 1013.29 1013.44 1014.06 1014.95 1015.20 1015.33 1015.25 1014.97 1015.08 1015.52 1016.20 1017.03 1017.69 1018.15 1018.53 1019.08 1019.38 1019.49 1019.82 1020.40
998.03 998.06 997.84 997.81 998.13 998.40 998.60 999.21 999.81 1000.44 1001.01 1001.16 1002.21 1003.90 1005.17 1005.59 1005.58 1006.47 1007.20 1007.63 1007.84 1008.44 1008.85 1009.41 1009.16 1009.69 1010.84 1010.73 1011.81 1012.57 1012.83 1013.15 1013.34 1013.62 1013.65 1013.98 1014.52 1015.42 1015.93 1015.93 1015.85 1015.78 1016.14 1016.88 1017.30 1018.00 1018.56 1019.01 1019.25 1019.57 1020.29 1020.97 1021.51 1021.85
999.20 999.24 999.41 999.41 999.27 999.26 999.55 999.60 999.42 1000.34 1001.95 1002.14 1002.39 1004.39 1005.15 1005.74 1006.92 1007.16 1008.28 1008.63 1008.50 1009.20 1009.72 1010.02 1010.27 1010.58 1011.36 1011.27 1011.94 1013.04 1013.24 1013.41 1013.39 1013.67 1013.95 1014.17 1015.26 1015.81 1016.29 1016.55 1016.72 1017.02 1017.42 1017.90 1018.44 1018.79 1019.26 1019.79 1020.31 1020.84 1021.45 1022.09 1022.57 1022.81
1001.04 1001.06 1001.04 1001.10 1001.04 1001.27 1001.01 1000.97 1001.04 1001.74 1002.20 1002.46 1003.19 1004.87 1005.77 1007.07 1007.37 1008.12 1009.03 1009.37 1009.65 1009.87 1010.21 1010.38 1010.87 1011.21 1011.81 1011.77 1012.55 1012.84 1013.30 1013.63 1013.68 1013.99 1014.01 1014.69 1015.62 1016.26 1016.78 1017.16 1017.53 1017.87 1018.17 1018.59 1019.21 1019.97 1020.78 1021.37 1021.77 1022.21 1022.81 1023.20 1023.25 1023.49
1002.39 1002.33 1002.40 1002.31 1002.48 1002.58 1002.33 1002.11 1002.06 1002.14 1002.55 1004.30 1005.69 1007.18 1007.83 1008.76 1009.44 1009.62 1009.65 1009.85 1010.57 1010.43 1010.36 1010.54 1010.85 1011.27 1011.78 1012.18 1012.57 1013.00 1014.05 1013.95 1014.20 1014.25 1014.51 1015.51 1016.27 1016.87 1017.25 1017.57 1018.09 1018.86 1019.60 1019.89 1020.52 1021.22 1021.73 1022.27 1022.98 1023.66 1024.03 1024.28 1024.48 1024.49
1003.32 1003.10 1003.04 1003.67 1003.63 1003.41 1003.15 1003.19 1002.99 1003.62 1005.27 1007.02 1007.68 1008.96 1009.76 1010.46 1010.66 1010.81 1010.84 1010.94 1011.21 1011.01 1010.79 1010.72 1011.04 1011.45 1012.14 1012.68 1013.08 1013.79 1014.33 1014.10 1014.13 1014.35 1015.41 1016.29 1017.04 1017.44 1017.70 1018.15 1018.96 1019.74 1020.40 1020.75 1021.45 1022.24 1022.80 1023.25 1023.60 1024.01 1024.46 1024.78 1025.05 1025.32
1004.03 1003.81 1005.36 1005.38 1004.94 1004.56 1004.12 1003.95 1004.89 1006.05 1008.23 1009.27 1009.98 1010.67 1011.08 1011.24 1011.62 1011.72 1011.86 1012.06 1012.06 1011.54 1010.77 1010.69 1011.30 1011.82 1012.52 1012.69 1013.08 1013.36 1013.92 1014.11 1015.02 1015.68 1016.44 1017.04 1017.51 1017.77 1018.14 1018.81 1019.32 1019.93 1020.64 1021.33 1022.10 1022.83 1023.50 1023.93 1024.22 1024.60 1024.99 1025.32 1025.54 1025.60
1004.49 1006.06 1006.43 1006.07 1005.84 1005.83 1005.74 1006.47 1007.94 1009.72 1010.74 1011.23 1011.71 1011.78 1011.79 1012.16 1012.50 1012.83 1012.88 1012.96 1012.74 1011.95 1011.68 1011.51 1011.63 1012.44 1012.92 1013.09 1013.60 1013.89 1014.62 1015.49 1016.25 1016.92 1017.26 1017.63 1017.85 1018.16 1018.83 1019.68 1020.39 1020.81 1021.32 1022.01 1022.68 1023.30 1023.88 1024.44 1024.84 1025.02 1025.18 1025.50 1025.67 1025.70
1006.31 1006.54 1006.61 1006.33 1006.11 1006.46 1007.78 1008.94 1010.03 1010.85 1011.74 1012.24 1012.33 1012.89 1012.97 1013.10 1013.37 1013.56 1013.68 1013.46 1012.98 1012.69 1012.43 1012.39 1012.50 1013.05 1013.25 1013.67 1014.24 1015.14 1016.05 1016.78 1017.40 1017.85 1018.12 1018.48 1018.62 1019.07 1019.67 1020.19 1020.90 1021.54 1022.24 1022.93 1023.49 1024.02 1024.54 1024.85 1024.99 1025.25 1025.57 1025.89 1025.85 1025.92
1007.78 1007.43 1007.12 1006.70 1006.39 1007.41 1009.74 1010.97 1011.13 1011.70 1012.79 1013.06 1013.34 1013.53 1013.74 1014.12 1014.31 1014.35 1014.12 1013.72 1013.39 1013.05 1013.10 1013.26 1013.70 1014.16 1014.71 1015.00 1015.46 1016.14 1016.87 1017.41 1018.20 1018.99 1019.52 1019.88 1020.05 1020.36 1020.82 1021.43 1022.03 1022.61 1023.14 1023.62 1023.99 1024.42 1025.00 1025.62 1025.91 1026.10 1026.37 1026.53 1026.50 1026.58
1007.90 1007.75 1007.56 1007.24 1006.81 1008.10 1010.59 1011.67 1011.53 1012.01 1012.85 1013.64 1013.67 1013.81 1014.15 1014.55 1014.78 1014.57 1014.34 1014.06 1013.68 1013.82 1014.51 1015.16 1016.03 1016.67 1016.58 1016.83 1016.57 1016.78 1017.50 1018.06 1018.72 1019.45 1020.30 1021.01 1021.44 1021.75 1022.18 1022.59 1023.03 1023.54 1024.03 1024.68 1025.30 1025.48 1025.57 1025.84 1026.44 1026.90 1027.24 1027.37 1027.24 1027.25
1008.02 1008.33 1008.08 1007.62 1008.32 1009.54 1011.32 1011.93 1012.37 1012.92 1013.22 1013.61 1014.13 1013.93 1014.48 1014.56 1014.52 1014.67 1014.74 1014.73 1015.19 1016.43 1017.13 1017.98 1018.18 1018.23 1018.17 1017.80 1017.58 1017.63 1018.16 1018.43 1018.62 1019.21 1020.08 1021.18 1021.96 1022.37 1022.94 1023.44 1023.92 1024.22 1024.70 1025.27 1025.72 1026.41 1026.71 1027.00 1027.45 1027.79 1027.86 1027.83 1028.01 1027.72
1009.41 1009.15 1009.09 1009.09 1010.12 1011.29 1012.33 1012.97 1012.88 1013.21 1013.56 1014.11 1014.20 1014.39 1014.80 1015.06 1015.26 1015.64 1015.80 1016.31 1017.78 1018.87 1019.04 1019.06 1019.01 1018.86 1018.91 1019.02 1019.16 1019.35 1019.71 1019.97 1020.34 1020.68 1021.22 1021.92 1022.53 1023.13 1023.71 1024.20 1024.66 1025.27 1025.86 1026.44 1026.84 1027.30 1027.59 1028.11 1028.54 1028.55 1028.37 1028.35 1028.11 1027.70
1009.91 1009.74 1010.48 1011.04 1011.62 1012.53 1014.09 1013.36 1013.37 1013.63 1013.89 1014.46 1014.68 1014.99 1015.51 1015.89 1016.41 1016.33 1017.01 1018.19 1019.46 1020.26 1020.33 1020.27 1020.09 1020.09 1020.30 1020.55 1020.59 1020.63 1020.70 1020.97 1021.52 1022.10 1022.62 1023.09 1023.72 1024.37 1024.96 1025.54 1025.91 1026.34 1026.84 1027.46 1027.83 1028.06 1028.44 1029.13 1028.96 1029.07 1028.67 1028.46 1028.14 1027.83
1011.08 1012.04 1012.71 1013.09 1013.33 1014.19 1014.42 1014.31 1014.28 1014.38 1014.59 1014.81 1015.24 1015.83 1016.41 1016.86 1017.02 1017.25 1018.18 1019.66 1020.89 1021.10 1021.27 1021.45 1021.48 1021.48 1021.58 1021.72 1021.96 1022.33 1022.45 1022.54 1022.89 1023.34 1023.73 1024.09 1024.71 1025.46 1026.05 1026.66 1027.28 1027.85 1028.24 1028.44 1028.62 1028.83 1029.00 1029.23 1029.44 1029.10 1028.93 1028.69 1028.25 1028.18
1012.56 1014.81 1014.47 1014.66 1014.81 1014.79 1014.99 1015.17 1015.27 1015.12 1015.40 1015.66 1016.06 1016.70 1017.30 1017.57 1017.85 1018.60 1019.71 1021.37 1022.09 1022.29 1022.15 1022.12 1022.31 1022.30 1022.66 1023.28 1023.89 1024.23 1024.19 1023.94 1024.22 1024.74 1025.34 1025.59 1026.05 1026.49 1026.99 1027.60 1028.30 1028.93 1029.26 1029.15 1029.23 1029.45 1029.49 1029.60 1029.48 1029.35 1029.21 1028.84 1028.65 1028.54
1014.45 1015.94 1015.80 1015.84 1015.87 1015.61 1015.77 1015.86 1016.06 1016.24 1016.35 1016.56 1017.32 1017.95 1018.21 1018.46 1019.26 1020.71 1022.34 1023.45 1023.79 1024.25 1024.32 1023.97 1023.61 1023.87 1024.38 1024.69 1025.08 1025.63 1025.97 1025.74 1025.75 1026.17 1026.87 1027.06 1027.11 1027.21 1027.68 1028.15 1028.61 1029.25 1030.02 1030.20 1030.12 1030.01 1029.85 1029.80 1029.74 1029.60 1029.28 1028.94 1028.75 1028.65
1015.96 1016.66 1016.89 1016.96 1016.66 1016.62 1016.73 1017.05 1017.04 1016.94 1017.12 1017.36 1017.96 1018.55 1019.10 1019.88 1021.52 1023.41 1024.50 1025.51 1025.52 1026.13 1026.29 1026.06 1025.67 1025.76 1026.15 1026.63 1027.04 1027.33 1027.43 1027.39 1027.27 1027.84 1028.31 1028.58 1028.85 1029.07 1029.19 1029.45 1030.03 1030.72 1030.85 1030.81 1030.82 1030.57 1030.42 1030.21 1029.92 1029.66 1029.41 1029.07 1028.82 1028.78
1017.51 1017.60 1017.45 1017.79 1017.44 1017.51 1017.50 1017.60 1017.81 1018.20 1018.57 1018.96 1019.16 1020.04 1021.18 1022.48 1024.30 1025.73 1026.47 1027.05 1027.24 1027.43 1027.61 1027.86 1028.01 1027.99 1028.02 1028.06 1028.11 1028.29 1028.53 1028.79 1028.98 1029.02 1029.20 1029.44 1029.79 1030.10 1030.38 1030.55 1031.20 1031.69 1031.49 1031.33 1031.50 1031.22 1030.87 1030.57 1030.17 1029.73 1029.42 1029.24 1029.16 1029.04
1018.51 1018.68 1018.53 1018.54 1018.34 1018.52 1018.88 1019.02 1019.39 1020.17 1020.77 1020.40 1020.80 1022.45 1024.27 1026.09 1027.53 1027.69 1027.91 1028.03 1027.92 1027.91 1028.07 1028.46 1028.73 1028.93 1029.11 1029.31 1029.49 1029.51 1029.46 1029.29 1029.10 1029.22 1029.27 1029.37 1029.62 1030.01 1030.66 1030.94 1030.97 1031.02 1031.07 1031.05 1031.09 1031.08 1030.90 1030.82 1030.39 1030.13 1029.95 1029.78 1029.46 1029.26
1019.41 1019.36 1018.89 1019.16 1019.26 1019.60 1020.41 1020.68 1021.38 1022.25 1022.39 1022.60 1023.38 1024.96 1026.32 1027.83 1029.07 1029.22 1029.03 1029.01 1028.98 1029.12 1029.43 1029.61 1029.71 1029.56 1029.54 1029.55 1030.02 1030.41 1030.72 1030.91 1030.98 1030.86 1030.60 1030.66 1030.92 1031.19 1031.22 1031.14 1031.14 1031.09 1031.20 1031.10 1030.98 1030.76 1030.58 1030.40 1030.17 1029.70 1029.55 1029.40 1029.21 1029.08
1020.04 1019.60 1019.56 1019.75 1020.25 1021.11 1021.52 1021.87 1022.33 1022.81 1023.38 1024.07 1024.65 1025.31 1026.69 1028.35 1029.62 1030.40 1030.48 1030.27 1030.15 1030.03 1029.94 1030.13 1030.46 1030.55 1030.65 1030.78 1030.70 1030.85 1031.01 1031.57 1032.03 1032.09 1032.29 1032.13 1031.84 1031.56 1031.35 1031.42 1031.41 1031.31 1031.37 1031.16 1030.97 1030.75 1030.51 1030.41 1030.05 1029.66 1029.38 1029.32 1029.39 1029.44
1020.80 1020.92 1020.67 1020.61 1021.25 1022.06 1022.07 1022.10 1022.35 1023.00 1023.96 1024.74 1025.85 1026.65 1027.44 1027.97 1029.24 1030.78 1031.75 1031.02 1030.73 1030.75 1031.37 1031.09 1031.14 1031.65 1031.96 1031.96 1032.07 1032.14 1032.55 1032.37 1032.30 1032.60 1032.56 1032.48 1032.17 1031.77 1031.68 1031.53 1031.39 1031.20 1031.15 1031.13 1030.97 1030.60 1030.32 1030.21 1030.03 1029.77 1029.55 1029.43 1029.41 1029.61
1021.69 1021.71 1021.74 1021.70 1021.94 1022.16 1022.88 1022.91 1022.98 1023.86 1024.61 1025.49 1026.68 1027.39 1028.11 1028.79 1030.14 1031.53 1032.48 1032.63 1032.47 1032.39 1032.37 1032.36 1032.41 1032.48 1032.71 1032.75 1032.78 1032.68 1032.75 1032.48 1032.84 1033.01 1032.92 1033.07 1033.17 1032.85 1032.56 1031.81 1031.38 1031.09 1031.07 1030.99 1030.77 1030.49 1030.16 1030.00 1029.91 1029.79 1029.74 1029.69 1029.72 1029.80
Wind_Speed
28 27 25 23 22 21 21 23 22 23 25 25 27 26 26 27 21 15 9 5 7 4 7 4 5 15 10 13 7 10 7 2 3 2 3 3 1 5 3 3 6 8 7 4 3 2 6 7 7 3 5 3 5 2
22 21 20 19 20 21 22 20 22 26 22 24 27 26 27 24 21 22 7 3 2 1 6 7 8 10 6 5 6 12 4 11 7 5 2 3 2 1 1 4 3 5 6 2 7 3 5 7 4 5 4 5 3 5
20 20 20 20 18 19 17 16 25 26 28 26 24 24 22 22 23 24 8 3 3 5 5 6 6 7 7 6 5 5 3 5 5 4 4 3 4 4 4 5 3 3 2 4 1 3 4 2 3 4 5 6 5 4
18 17 13 17 16 19 25 24 25 24 24 23 26 25 24 22 27 16 6 3 3 4 4 4 3 3 7 2 4 3 6 6 8 4 3 3 4 4 3 2 4 3 6 6 6 9 3 6 7 7 6 4 3 3
18 18 17 20 19 16 18 21 22 22 23 25 26 26 23 25 19 5 2 2 3 4 4 5 7 6 5 4 6 6 10 8 4 4 3 2 3 4 2 1 3 5 3 4 3 6 5 8 6 5 3 4 5 5
21 21 20 17 14 15 19 21 22 23 24 24 24 23 25 26 16 4 2 4 3 1 6 4 2 4 7 10 11 8 5 4 4 4 3 3 3 2 4 4 5 4 2 5 3 4 6 5 6 7 8 9 11 12
20 21 20 19 17 15 16 16 17 18 20 21 21 23 24 21 8 2 2 4 5 2 6 2 3 3 2 5 3 4 6 4 4 4 3 3 3 2 2 3 7 3 3 4 3 2 5 6 7 12 13 15 15 15
23 22 23 24 23 21 19 20 21 23 24 22 24 24 21 22 13 5 5 7 8 7 6 3 3 3 5 3 3 4 3 3 6 4 2 3 3 0 3 7 5 4 6 6 7 10 13 12 13 13 13 12 13 11
22 21 24 24 25 25 25 24 26 27 27 28 28 21 9 2 2 4 4 5 3 6 5 2 4 3 2 3 2 3 3 4 2 2 2 3 2 3 4 5 1 2 1 6 9 11 12 12 13 12 12 11 11 9
21 20 21 21 19 19 18 19 19 20 21 17 8 5 5 3 4 5 2 1 4 3 4 3 1 4 0 2 2 2 2 3 3 2 3 2 3 4 5 4 1 2 5 8 10 10 12 12 10 10 10 6 8 9
20 20 19 23 23 20 19 13 14 15 8 1 4 4 3 5 2 5 3 0 1 3 3 3 4 6 3 3 3 3 3 1 4 3 4 5 3 4 5 5 5 8 9 5 10 10 11 11 10 8 9 9 8 9
21 22 21 19 22 23 24 20 8 8 3 3 7 5 3 3 2 4 3 2 2 3 2 3 3 4 3 2 4 2 4 2 3 6 3 3 5 9 8 8 9 9 13 15 14 14 11 10 9 9 9 9 8 7
23 23 22 21 19 20 18 18 15 11 6 3 5 6 2 2 5 4 5 1 3 3 3 4 4 3 3 3 4 2 3 3 6 3 3 3 9 9 10 11 13 13 13 13 13 13 13 12 11 10 9 8 4 7
22 25 24 23 19 17 19 16 13 6 7 6 5 6 5 3 3 2 4 3 2 2 5 5 3 3 2 4 1 5 3 4 4 4 3 5 10 10 10 11 13 13 8 11 12 11 11 11 10 9 6 5 6 8
20 22 20 24 18 15 19 19 17 7 6 6 3 4 4 2 3 2 2 2 3 1 2 4 4 3 3 4 2 4 4 4 3 1 3 6 9 11 12 12 12 11 7 9 11 9 7 6 7 8 8 9 8 7
6 12 13 16 17 14 13 15 9 5 5 5 6 4 2 2 2 3 3 3 3 1 1 3 4 3 3 3 3 2 5 3 3 3 4 9 11 10 12 11 10 10 10 10 9 10 9 7 6 7 6 7 5 5
14 5 14 10 8 13 16 6 5 7 4 3 3 3 2 4 4 2 3 2 3 1 3 2 3 4 3 3 3 0 3 3 4 4 4 8 11 12 12 11 9 9 10 9 9 8 8 6 5 5 5 7 7 6
6 7 13 9 5 6 5 7 4 4 6 4 3 3 3 3 2 3 2 3 2 2 2 3 3 2 2 3 3 3 4 5 5 4 5 7 10 11 10 11 10 10 10 9 8 7 6 3 4 4 6 7 7 7
10 10 13 10 7 5 5 5 4 5 5 2 2 2 3 3 3 3 1 2 3 2 3 2 3 3 3 4 6 7 6 5 7 5 6 9 10 10 10 11 10 9 8 7 5 4 5 6 5 5 5 6 6 6
5 15 17 9 4 5 5 3 2 4 4 3 2 3 3 3 0 1 4 4 4 3 5 5 5 4 4 3 2 7 7 8 9 8 7 7 7 10 9 7 7 8 7 7 6 4 3 3 5 5 5 5 6 6
7 9 11 5 5 7 5 3 4 3 2 4 2 2 3 2 4 4 5 5 5 5 4 4 4 4 4 4 5 5 5 5 5 5 8 8 7 7 7 6 6 5 4 4 4 4 4 4 4 4 4 5 5 6
5 9 4 6 5 5 5 6 3 2 3 2 2 3 3 3 3 4 3 6 4 4 3 2 3 5 7 9 8 8 9 10 10 10 12 9 7 6 5 5 5 5 5 4 4 3 3 4 4 5 5 5 6 6
6 5 5 6 5 6 3 4 4 4 3 2 1 3 3 3 3 2 4 4 4 4 4 5 7 9 9 10 10 10 9 9 8 7 7 7 7 7 6 6 5 4 4 4 3 3 4 3 3 4 5 6 6 6
3 6 6 6 7 5 1 4 3 2 3 2 3 3 3 3 2 2 4 4 5 4 5 5 4 5 6 8 8 8 7 7 8 7 6 6 6 6 6 6 5 5 5 3 3 3 3 4 4 5 5 7 6 7
6 8 5 7 4 4 4 3 3 3 4 3 3 3 3 1 2 3 4 4 6 7 6 4 5 6 6 6 6 6 8 5 6 7 6 6 6 5 5 5 5 5 4 4 4 4 4 4 5 6 7 7 8 9
8 9 6 5 4 4 3 3 3 4 3 3 4 2 0 1 3 5 4 6 6 7 7 8 4 5 7 7 6 6 6 5 5 7 7 6 5 4 3 2 1 4 5 4 5 6 6 6 7 8 8 8 8 9
6 7 4 3 2 2 4 3 3 3 3 3 3 1 2 3 5 4 4 6 5 6 7 7 8 7 7 6 7 7 7 8 8 7 6 6 7 6 6 4 4 5 5 5 5 6 8 8 8 8 8 8 8 8
5 6 5 5 4 4 3 3 3 4 3 3 0 4 4 6 5 4 5 5 5 6 7 7 8 7 7 7 6 6 6 5 5 5 5 6 5 5 5 4 4 2 4 4 5 6 7 8 8 9 9 9 8 7
5 3 2 4 3 4 5 5 4 4 5 5 3 4 4 5 4 4 4 5 4 4 5 5 6 5 6 6 6 6 6 6 5 5 5 4 3 4 5 4 4 4 4 6 6 6 8 8 9 9 9 8 7 7
4 4 1 3 3 4 4 6 5 6 6 5 5 6 7 5 5 5 5 6 6 6 6 5 5 5 5 5 5 6 7 7 7 6 5 5 5 5 5 5 5 5 5 6 7 8 8 7 9 7 5 6 6 6
4 3 3 4 4 4 4 6 7 7 5 6 8 8 7 5 4 6 7 6 5 5 4 5 6 6 6 6 6 4 4 6 6 6 5 5 5 6 5 5 6 6 6 7 7 8 8 8 8 9 8 8 8 7
4 5 3 3 4 4 2 2 3 3 3 3 4 3 3 3 4 4 6 6 5 6 5 6 5 6 5 4 4 4 2 4 5 5 8 6 7 7 7 6 6 6 7 7 8 9 9 9 8 9 9 9 9 8
2 3 3 2 2 3 3 2 2 4 4 3 4 4 5 4 5 3 3 5 6 5 5 5 4 4 4 4 5 3 3 4 6 6 6 7 7 7 7 7 7 8 9 8 9 10 10 10 9 10 10 9 8 8
Wind_Direction
170 175 181 182 191 196 193 192 193 180 179 176 183 182 183 192 190 189 227 235 275 106 128 246 190 193 187 189 156 135 138 190 168 141 132 171 153 202 214 211 171 175 171 193 176 193 269 133 140 231 35 66 1 339
168 173 181 189 193 190 190 182 175 187 175 180 184 182 187 189 184 190 247 194 312 32 83 66 57 35 5 337 198 172 203 157 176 131 178 99 128 44 347 229 179 226 217 228 200 219 102 183 27 65 6 338 345 336
177 178 178 177 171 175 194 200 185 173 174 172 173 178 178 180 176 190 241 228 181 113 123 163 102 50 27 355 359 165 214 142 172 356 138 119 145 172 157 227 217 226 137 232 279 150 227 248 319 335 345 316 324 314
147 156 163 166 171 195 162 158 160 163 161 168 174 176 175 173 178 190 242 249 62 66 112 100 124 52 326 259 183 2 105 90 118 128 118 128 126 241 188 332 220 359 158 234 241 285 261 84 51 19 9 13 341 2
179 183 187 177 166 144 151 153 155 165 172 173 174 171 171 170 162 155 215 271 353 296 116 107 122 26 11 140 145 145 150 141 144 114 105 123 98 128 121 71 224 190 241 203 269 52 338 72 30 1 7 40 56 76
120 128 135 139 143 147 157 164 166 166 167 167 166 163 161 156 140 189 76 332 316 303 110 126 107 70 75 84 90 100 110 80 76 97 108 80 65 245 148 197 79 59 14 10 28 35 53 75 50 41 73 71 72 82
101 109 114 116 114 120 133 140 144 148 149 150 152 154 153 145 160 267 251 55 207 105 87 97 139 102 40 136 59 91 59 66 55 98 76 116 113 176 147 208 114 90 57 64 37 193 115 37 85 79 88 88 82 86
75 81 87 87 90 96 109 121 128 133 133 133 132 132 118 103 116 172 38 334 309 85 74 140 97 127 352 83 93 349 72 67 33 95 102 104 109 77 206 100 102 93 93 77 70 67 83 99 98 94 92 96 97 103
70 80 83 82 85 86 91 103 114 118 120 120 115 114 100 40 143 79 7 290 58 53 127 52 127 143 47 74 76 73 39 67 30 85 99 140 146 196 86 106 36 70 93 119 96 91 97 102 106 112 109 113 117 135
59 60 69 73 68 76 95 95 98 102 110 120 128 124 116 73 116 165 31 78 43 39 53 89 144 130 210 122 87 113 38 105 120 90 147 214 140 94 75 54 340 235 164 127 125 120 121 126 124 120 132 106 65 55
61 54 59 57 52 54 68 89 131 131 119 96 90 80 92 120 149 21 73 131 136 82 58 88 104 124 5 113 117 5 108 122 122 135 199 181 186 137 123 99 81 80 99 97 119 118 115 125 135 109 84 74 64 57
57 51 52 59 55 44 52 44 64 67 54 74 95 103 142 67 85 88 25 348 52 107 92 102 91 84 88 128 101 122 97 143 131 143 178 199 107 127 131 110 101 111 116 115 121 123 111 88 84 86 78 72 61 65
65 59 52 52 58 61 49 53 54 99 162 113 69 63 51 320 73 142 181 181 132 143 157 148 117 101 120 71 89 135 111 112 135 152 201 54 137 138 125 122 115 115 114 113 104 96 92 83 74 81 80 55 23 57
63 63 54 42 44 64 57 47 47 36 45 59 54 42 11 87 67 22 5 84 88 103 112 108 85 77 109 77 67 88 66 155 184 206 182 144 145 136 140 133 129 113 87 105 103 100 98 96 90 83 73 67 45 33
53 53 50 28 28 34 56 49 40 47 50 59 36 68 70 100 61 29 7 73 27 81 129 112 80 83 71 104 65 122 158 185 223 162 108 126 131 144 144 131 123 120 117 109 104 92 87 99 101 85 65 43 40 28
52 57 24 15 35 36 28 27 32 54 55 42 42 82 34 67 35 40 31 58 349 349 99 58 101 94 85 97 159 179 177 188 114 85 116 135 145 150 140 130 133 117 114 110 109 107 95 79 69 64 68 47 359 32
54 49 346 2 31 43 41 65 46 54 71 44 45 11 37 62 63 44 28 26 308 348 64 85 82 56 125 117 126 52 55 73 107 96 120 141 147 143 135 117 117 122 116 106 100 93 94 92 93 68 29 22 358 2
47 30 13 12 16 54 43 34 65 69 69 29 66 26 35 25 60 45 29 337 11 61 20 66 119 122 70 111 124 119 93 77 75 81 108 144 142 137 140 131 122 113 106 103 103 100 88 75 58 39 17 9 346 0
44 26 20 17 32 86 64 37 1 78 59 53 73 60 64 79 46 47 18 33 60 23 102 61 73 72 79 55 96 108 116 113 106 81 70 63 81 94 99 100 104 106 104 103 102 84 86 63 44 22 16 0 355 359
356 20 5 357 9 84 80 43 350 68 68 62 35 40 52 47 82 11 48 30 45 56 45 30 32 30 36 29 53 119 108 120 125 120 109 102 104 112 117 121 122 130 120 118 90 41 68 71 44 19 19 357 350 346
28 357 343 22 52 59 72 39 59 53 91 67 9 45 65 49 50 37 37 16 56 29 60 45 73 74 58 28 26 73 123 165 132 139 141 136 130 119 116 109 107 100 97 74 63 82 43 34 19 3 348 350 348 319
8 340 31 21 72 61 67 20 55 95 59 72 54 33 52 47 44 31 2 50 55 40 16 77 88 100 80 69 67 71 84 89 88 76 76 102 125 125 117 111 114 97 84 70 60 51 31 30 14 344 330 344 307 317
337 22 43 21 73 51 40 329 55 17 69 74 89 71 58 63 40 338 75 64 80 39 43 48 69 77 89 81 74 71 77 92 92 94 92 94 94 98 99 86 77 89 99 71 35 29 24 352 5 328 323 320 318 323
24 47 33 40 37 73 37 42 38 54 54 49 68 76 49 49 349 56 78 67 41 56 74 78 80 91 89 78 71 66 63 82 95 93 95 108 105 92 89 88 81 68 45 35 24 4 355 338 316 317 330 314 325 327
61 19 0 52 28 65 64 52 25 50 69 39 97 92 75 334 67 53 65 76 40 27 29 57 54 54 85 93 90 65 35 57 89 91 64 75 102 110 100 88 77 60 27 3 5 338 337 327 319 326 323 318 329 323
70 27 36 30 38 36 38 81 55 54 56 68 63 75 297 85 72 58 56 20 35 23 12 4 43 81 60 44 71 60 42 32 85 88 67 49 44 64 76 75 70 109 31 1 337 328 322 329 323 320 314 317 316 313
58 45 47 36 28 84 101 77 71 63 66 61 90 124 186 93 79 71 86 26 30 33 24 21 33 61 75 77 67 56 50 41 52 77 82 71 60 47 39 34 30 29 340 354 331 326 324 318 314 316 314 311 318 324
43 23 36 12 49 27 67 51 46 43 53 16 274 38 40 28 68 56 40 42 50 57 59 55 50 52 56 56 69 79 80 87 94 104 110 101 76 74 55 43 65 7 318 357 338 314 317 312 309 303 309 316 315 313
43 13 353 41 49 56 37 18 47 50 359 323 34 72 81 58 27 19 30 23 35 66 71 71 74 86 84 75 58 46 39 20 29 48 38 30 27 72 25 2 343 342 339 329 323 317 320 312 307 313 312 307 309 302
36 338 23 59 48 60 55 14 74 69 44 51 101 117 101 89 46 27 40 43 49 57 55 49 43 49 47 67 79 73 52 42 32 20 8 7 360 350 330 332 335 334 329 322 322 321 310 320 309 286 284 297 305 327
346 332 54 47 68 55 54 97 106 94 71 53 45 79 103 120 109 53 32 28 41 37 61 72 62 43 49 39 28 32 64 62 38 28 9 329 322 314 321 333 318 327 319 312 316 313 318 313 309 309 304 311 312 302
16 28 0 66 92 67 31 14 47 68 92 93 86 107 142 124 86 73 10 343 50 59 42 35 50 57 37 38 38 61 28 347 348 358 336 332 316 323 318 316 311 308 309 309 304 304 304 308 304 305 304 304 313 319
35 36 45 62 108 102 52 335 93 100 73 73 75 56 44 36 68 80 97 35 30 33 32 28 27 29 29 4 354 349 307 348 345 317 314 321 310 313 305 297 309 309 303 299 305 304 304 302 303 307 310 306 303 308